Regional Weather Roundup
Issued by NWS Wakefield, VA

Home | Current Version | Previous Version | Graphics & Text | Print | Product List | Glossary On
Versions: 1 2 3 4 5 6 7 8 9 10 11 12 13 14 15 16 17 18 19 20 21 22 23 24 25 26 27 28 29 30 31 32 33 34 35 36 37 38 39 40 41 42 43 44 45 46 47 48 49 50
000
ASUS41 KAKQ 050615
RWRAKQ

REGIONAL WEATHER ROUNDUP
NATIONAL WEATHER SERVICE WAKEFIELD VA
200 AM EDT SUN JUL 05 2015

Note: "fair" indicates few or no clouds below 12,000 feet with no
significant weather and/or obstructions to visibility. * = Denotes
station may not report precipitation (e.g., rain,snow,etc.),
thunder or fog.

VAZ042-051-052>054-056-050700-
NORTHERN VIRGINIA

CITY           SKY/WX    TMP DP  RH WIND       PRES   REMARKS
WASH NATIONAL  CLOUDY    74  69  85 N6        30.05S HAZE
DULLES         MOCLDY    69  66  90 N5        30.06R FOG
FORT BELVOIR   FOG       68  68 100 CALM      30.04S VSB<1/4
QUANTICO       PTCLDY    71  67  87 SW3       30.05S
FREDERICKSBRG* CLEAR     70  70 100 CALM      30.04S FOG
STAFFORD*      CLEAR     66  64  96 CALM      30.09R FOG
WARRENTON      FOG       67  67 100 CALM      30.05S VSB 1/4
CULPEPER*      FOG       65  65 100 CALM      30.06S VSB 1/4
MANASSAS*        N/A    N/A N/A N/A MISG        N/A
LEESBURG*      MOCLDY    68  68 100 CALM      30.07S FOG
WINCHESTER     MOCLDY    68  66  94 CALM      30.07S FOG
FRONT ROYAL*   CLOUDY    66  64  94 CALM      30.06S
LURAY*         FOG       68  68 100 CALM      30.07S VSB 1/2
$$

VAZ048-049-060>072-079>083-050700-
CENTRAL AND SOUTH CENTRAL VIRGINIA

CITY           SKY/WX    TMP DP  RH WIND       PRES   REMARKS
RICHMOND       PTCLDY    70  68  94 CALM      30.04R FOG
CHESTERFIELD*  NOT AVBL
PETERSBURG*    PTCLDY    69  69 100 CALM      30.04S
HANOVER        MOCLDY    67  67 100 CALM      30.05S FOG
TAPPAHANNOCK*  CLEAR     68  66  92 CALM      30.04S
QUINTON*       NOT AVBL
CHARLOTTSVILLE PTCLDY    66  65  96 CALM      30.06R FOG
GORDONSVILLE*  FOG       64  64 100 CALM      30.05S VSB 3/4
ORANGE*        FOG       68  66  94 CALM      30.07R VSB 1/4
LOUISA*        CLEAR     70  70 100 CALM      30.04S FOG
BUMPASS*       MOCLDY    68  68  99 CALM      30.04S
FARMVILLE*     CLEAR     69  69 100 CALM      30.03S
CREWE*         FAIR      69  67  96 CALM      30.04F
FORT PICKETT*  FAIR      69  68  98 W9        30.04F
CHASE CITY*    CLOUDY    73  73 100 CALM      30.05S
CLARKSVILLE*   CLOUDY    68  68 100 NW5       30.04S
SOUTH HILL*    MOCLDY    70  69  97 CALM      30.10R
LAWRENCEVILLE* NOT AVBL
EMPORIA*         N/A     72  70  94 CALM      30.05R
$$

VAZ088>098-050700-
SOUTHEAST VIRGINIA

CITY           SKY/WX    TMP DP  RH WIND       PRES   REMARKS
NORFOLK        PTCLDY    73  70  90 SW3       30.03S
VIRGINIA BEACH MOCLDY    77  70  79 CALM      30.02F
NORFOLK NAVAL  LGT RAIN  72  70  93 CALM      30.04S FOG
WEST POINT*    CLEAR     70  68  93 CALM      30.05S
SALUDA*        FAIR      68  68  99 CALM      30.03S
NEWPORT NEWS   LGT RAIN  74  70  87 CALM      30.03S
LANGLEY AFB    MOCLDY    73  72  94 SW6       30.01S
FORT EUSTIS    PTCLDY    73 N/A N/A CALM      30.01S
WILLIAMSBURG*  PTCLDY    73  72  94 CALM      30.04S
HR EXEC AP*    CLOUDY    72  68  88 CALM      30.05S
FRANKLIN*      MOCLDY    71  69  93 CALM      30.04R FOG
WAKEFIELD      MOCLDY    73  71  93 S3        30.03S
$$

VAZ020-022-025-037-045-050700-
WEST CENTRAL AND SOUTHWEST VIRGINIA

CITY           SKY/WX    TMP DP  RH WIND       PRES   REMARKS
STAUNTON*      MOCLDY    69  65  89 CALM      30.10R
WAYNESBORO*    FAIR      66  65  97 CALM      30.09R
HOT SPRINGS VA PTCLDY    63  63  99 CALM      30.18S
LYNCHBURG      CLEAR     68  68 100 N5        30.07S FOG
DANVILLE       MOCLDY    71  69  93 W5        30.06R
SOUTH BOSTON*  CLOUDY    69  68  95 MISG      30.04S
MARTINSVILLE   LGT RAIN  71  71 100 CALM      30.09F
ROANOKE        PTCLDY    68  66  93 CALM      30.09S
BLACKSBURG     PTCLDY    66  66 100 NW3       30.15S FOG
DUBLIN*        CLOUDY    67  67 100 CALM      30.14S FOG
MARION*        CLOUDY    65  64  96 CALM      30.17F FOG
HILLSVILLE*    CLOUDY    65  64  97 CALM      30.15S
RICHLANDS*     RAIN      65  65 100 CALM      30.15S
WISE*          CLOUDY    66  66 100 CALM      30.15S
ABINGDON*      CLOUDY    69  69 100 CALM      30.12F FOG
$$

MDZ021>025-VAZ099-100-050700-
SOUTHERN MARYLAND AND THE DELMARVA PENINSULA

CITY           SKY/WX    TMP DP  RH WIND       PRES   REMARKS
PATUXENT RIVER CLOUDY    72  70  93 NW5       30.02S FOG
BAY BRIDGE APT   N/A     70  68  94 CALM      30.04S
LEONARDTOWN    CLOUDY    70  68  94 CALM      30.05S VSB 1/2
DOVER          CLEAR     66  66  99 NW3       30.02S
GEORGETOWN     MOCLDY    69  67  93 CALM      30.04F
EASTON         PTCLDY    70  70 100 CALM      30.08S FOG
CAMBRIDGE      MOCLDY    70  66  88 CALM      30.03S
SALISBURY      CLOUDY    70  70 100 N5        30.03S FOG
OCEAN CITY     CLOUDY    70  68  93 NW3       30.02F FOG
WALLOPS ISLAND CLOUDY    72  72 100 W5        30.02S FOG
ACCOMACK*      MOCLDY    70  70 100 CALM      30.02S FOG
$$

NCZ012>017-030>032-050700-
NORTH CENTRAL AND EASTERN NORTH CAROLINA

CITY           SKY/WX    TMP DP  RH WIND       PRES   REMARKS
ROANOKE RAPIDS FAIR      70  70 100 CALM      30.04R
RALEIGH        MOCLDY    74  68  81 CALM      30.05F
ELIZABETH CITY PTCLDY    76  72  87 SW5       30.03S
AHOSKIE*       CLOUDY   N/A N/A N/A CALM      30.04S
EDENTON*       PTCLDY    78  71  79 SW6       30.04S
CURRITUCK*     PTCLDY    76  71  86 CALM      30.04S
KILL DEVIL HLS PTCLDY    79  71  76 SW7       30.03F
MANTEO         PTCLDY    77  74  90 SW8       30.05S
CAPE HATTERAS  PTCLDY    77  75  93 SW12G18   30.06F
TARBORO*         N/A     75  69  81 CALM      30.05F
GOLDSBORO      MOCLDY    77  72  85 S5        30.03S
WASHINGTON     MOCLDY    76  69  79 W5        30.06S
GREENVILLE     MOCLDY    73  72  94 SW5       30.06F
NEW BERN       CLEAR     78  72  81 SW7       30.07S
WILMINGTON     CLEAR     79  70  74 SW10      30.07S
$$

VAZ048-050700-
ELSEWHERE

CITY           SKY/WX    TMP DP  RH WIND       PRES   REMARKS
HARRISBURG PA  MOCLDY    65  62  90 N5        30.06S FOG
BALTIMORE      PTCLDY    65  64  97 CALM      30.05S FOG
ANNAPOLIS      MOCLDY    71  68  90 N3        30.04R FOG
ANDREWS AFB    PTCLDY    68  68 100 N8        30.04S FOG
PHILADELPHIA   CLOUDY    71  57  61 N3        30.06R
HENDERSON NC   PTCLDY    70  67  92 SW5       30.05S
GREENSBORO     MOCLDY    73  68  84 CALM      30.07S
ROCKY MOUNT    PTCLDY    72  70  93 CALM      30.04S
$$

VAZ100-050700-
MARINE

STATION/POSITION TIME  TEMP    WIND        PRES    WAVE   SWELL
                       AIR SEA DIR/SP/G            HT/PER HT/PER
                 (UTC) (F)     (DEG/KT/KT) (MB)    (FT/S) (FT/S)
BRANDYWINE LGT   0500   71 72   70/  8/  9 1017.4R
CAPE MAY NJ      0500   70 76   30/  2/  3 1016.9R
LEWES DE         0500   72 73   60/  4/  5 1017.1R
15NM E FENWICK I 0550   72 73              1016.2R   5/ 7
OCEAN-CITY-INLET 0500   72 74   10/  2/  3 1016.5R
WACHAPREAGUE VA  0500   70 80  270/  2/  3 1016.6R
GOOSES REEF MD   0600   74 77  120/  4/  6 1017.9R
COVE POINT MD    0500   72     310/  2/  3 1017.5R
SOLOMONS ISLAND  0500      80                N/A
BISHOPS HEAD MD  0500   73      20/  2/  2 1016.5R
PINEY POINT MD   0500          320/  5/  6   N/A
CAMBRIDGE MD     0500   71 79  180/  1/  2 1016.7R
LEWISETTA VA     0500   70 79  290/  4/  5 1016.6R
RAPPAHANNOCK LGT 0500          270/  8/  8 1017.2R
STINGRAY PT      0600   74 80  330/  4/  8 1016.7S   1
YORK RVR RNG VA  0500   75     270/  4/  5 1016.2R
YORKTOWN VA      0500   73 79  270/  2/  3 1016.6R
JAMESTOWN VA     0600   74 82  290/  2/  4   N/A
DOMINION TERM VA 0500   75      60/  2/  3 1016.8R
KIPTOPEKE VA     0500      83  330/  3/  4   N/A
CHES BAY BRIDGE  0500   76 76  330/  3/  3 1016.4R
CAPE HENRY VA    0500   75     310/  5/  6   N/A
CHESAPEAKE LGHT  0500   76     310/ 14/ 15 1017.5R
WILLOUBY STN VA  0500   75      10/  1/  2 1017.6R
CAPE HENRY BUOY  0528      78                N/A     2/ 9
1ST LANDING BUOY 0600      75              1016.2F   2/ 4
CAPE CHARLES BUO 0526      77                N/A     2/ 8   2/ 8
OFFSHORE WE BUOY 0511      76                N/A     4/ 8   3/ 8
64NM E OF VA BCH 0550   77 76  260/ 10/ 12 1016.4R   5/ 7   3/ 7
DUCK PIER NC     0500   80 72  240/  8/ 11   N/A
44100 DUCK FRF   0524      77                N/A     2/ 8
44056 DUCK FRF   0511      77                N/A     2/ 6
OREGON INLET NC  0500   80 81  220/ 13/ 15 1017.4R
HATTERAS NC      0500   78 79  230/ 12/ 16 1017.7R
DIAMOND SHLS NC  0550   80 81  240/ 19/ 23 1017.6R   5/ 5   2/ 9
CAPE LOOKOUT NC  0600   79     240/ 11/ 15 1017.9F
$$


USA.gov is the U.S. government's official web portal to all federal, state and local government web resources and services.